Temp
3 3 3 2 2 1 0 -1 -2 -2 -3 -4 -3 -3 -3 -3 -3 -4 -4 -4 -4 -4 -5 -6 -6 -6 -6 -6 -7 -6 -7 -7 -7 -7 -7 -6 -6 -6 -6 -6 -6 -6 -6
3 2 2 1 1 -0 -1 -2 -2 -4 -5 -5 -4 -4 -4 -4 -4 -4 -4 -4 -4 -5 -5 -7 -7 -6 -6 -6 -6 -7 -7 -7 -7 -6 -7 -6 -6 -6 -6 -6 -7 -7 -7
2 1 1 -1 -1 -1 -2 -3 -4 -5 -5 -6 -5 -4 -4 -5 -5 -5 -5 -5 -5 -5 -6 -6 -7 -7 -7 -7 -7 -7 -7 -7 -7 -7 -7 -6 -6 -6 -6 -7 -8 -8 -8
0 0 -1 -2 -3 -3 -4 -5 -5 -5 -6 -7 -6 -5 -5 -5 -5 -5 -5 -5 -5 -5 -6 -6 -7 -7 -7 -7 -7 -8 -8 -7 -8 -7 -7 -6 -6 -6 -7 -7 -7 -7 -8
-1 -1 -2 -4 -4 -5 -6 -5 -5 -5 -6 -7 -7 -6 -5 -6 -6 -5 -6 -6 -6 -6 -6 -7 -7 -7 -7 -7 -7 -8 -8 -8 -8 -7 -7 -7 -7 -7 -7 -7 -8 -8 -9
-4 -4 -4 -5 -5 -5 -5 -5 -5 -5 -7 -8 -7 -7 -6 -6 -6 -6 -6 -6 -6 -6 -7 -7 -8 -8 -9 -9 -9 -8 -8 -8 -8 -8 -7 -7 -7 -8 -7 -9 -9 -9 -9
-5 -5 -5 -5 -5 -5 -5 -5 -6 -7 -8 -8 -8 -6 -6 -6 -6 -7 -7 -7 -7 -7 -7 -8 -8 -9 -9 -9 -9 -9 -9 -9 -8 -8 -8 -8 -8 -7 -8 -9 -9 -9 -10
-5 -5 -5 -5 -5 -5 -5 -5 -7 -8 -8 -7 -7 -6 -6 -6 -6 -7 -7 -7 -7 -8 -8 -9 -9 -9 -9 -9 -9 -9 -9 -9 -9 -8 -9 -9 -8 -8 -8 -8 -9 -9 -9
-4 -4 -4 -5 -6 -7 -7 -7 -7 -7 -7 -7 -7 -7 -7 -6 -6 -7 -8 -8 -8 -8 -9 -9 -9 -9 -9 -9 -10 -10 -10 -9 -10 -9 -9 -9 -9 -9 -9 -9 -9 -9 -10
-5 -5 -5 -6 -7 -8 -8 -8 -8 -7 -7 -7 -7 -7 -7 -7 -7 -8 -8 -8 -8 -8 -9 -9 -9 -9 -9 -10 -10 -10 -10 -10 -10 -10 -9 -9 -9 -9 -10 -10 -10 -10 -10
-6 -7 -6 -7 -7 -8 -8 -8 -7 -7 -7 -7 -7 -7 -7 -8 -8 -9 -9 -9 -9 -9 -9 -9 -9 -10 -10 -10 -10 -10 -10 -10 -10 -10 -10 -10 -10 -10 -10 -10 -10 -10 -10
-7 -7 -7 -8 -9 -9 -9 -8 -7 -7 -7 -7 -7 -7 -8 -9 -9 -10 -10 -9 -9 -9 -9 -9 -10 -10 -10 -10 -10 -10 -10 -10 -10 -10 -10 -10 -10 -10 -10 -10 -10 -10 -11
-8 -8 -9 -9 -9 -9 -8 -8 -8 -7 -7 -7 -7 -7 -8 -9 -9 -10 -10 -10 -10 -10 -10 -10 -10 -10 -10 -11 -11 -11 -11 -11 -11 -10 -10 -10 -11 -11 -11 -10 -11 -11 -11
-8 -8 -9 -9 -9 -8 -8 -8 -8 -8 -8 -8 -8 -8 -9 -10 -10 -10 -10 -10 -10 -10 -11 -11 -11 -11 -11 -11 -11 -11 -11 -11 -11 -11 -11 -11 -11 -11 -11 -11 -11 -11 -11
-9 -9 -9 -10 -9 -9 -8 -8 -8 -8 -8 -8 -9 -10 -10 -10 -10 -10 -10 -11 -11 -11 -11 -11 -11 -11 -11 -11 -11 -11 -11 -11 -11 -11 -11 -11 -11 -11 -11 -11 -11 -11 -11
-9 -10 -10 -9 -9 -9 -9 -8 -8 -8 -8 -9 -9 -9 -10 -10 -10 -11 -11 -11 -11 -12 -12 -12 -11 -11 -11 -11 -11 -11 -11 -11 -11 -11 -11 -11 -11 -12 -12 -12 -12 -12 -12
-10 -10 -10 -10 -10 -10 -9 -9 -9 -9 -9 -9 -10 -10 -11 -11 -11 -11 -11 -12 -12 -12 -12 -12 -11 -12 -12 -12 -11 -11 -11 -11 -11 -11 -12 -12 -12 -12 -12 -12 -12 -12 -12
-11 -10 -10 -10 -10 -10 -10 -9 -9 -10 -10 -10 -10 -10 -11 -11 -12 -12 -12 -12 -12 -12 -12 -12 -12 -12 -12 -12 -12 -11 -11 -11 -11 -12 -12 -12 -12 -12 -13 -13 -12 -12 -12
-11 -11 -11 -10 -11 -11 -10 -10 -10 -10 -11 -11 -11 -12 -12 -12 -12 -12 -12 -12 -12 -13 -13 -13 -13 -12 -12 -12 -12 -12 -12 -11 -11 -11 -12 -12 -12 -13 -13 -13 -13 -13 -13
-12 -12 -11 -12 -12 -11 -11 -11 -11 -11 -11 -12 -12 -12 -13 -13 -13 -13 -13 -13 -13 -13 -13 -13 -13 -13 -12 -12 -12 -12 -12 -12 -11 -11 -11 -12 -12 -13 -13 -13 -13 -13 -13
-13 -12 -12 -12 -13 -12 -12 -12 -12 -12 -12 -12 -12 -13 -13 -13 -13 -13 -13 -13 -13 -13 -13 -13 -13 -13 -13 -12 -13 -12 -12 -12 -11 -11 -11 -12 -12 -12 -13 -13 -13 -13 -13
-13 -12 -12 -13 -13 -13 -12 -12 -12 -12 -13 -13 -13 -13 -13 -14 -14 -14 -14 -13 -13 -13 -13 -13 -13 -13 -13 -13 -13 -12 -12 -12 -12 -11 -11 -12 -12 -12 -13 -13 -13 -13 -13
-13 -13 -13 -14 -14 -14 -13 -13 -13 -13 -13 -13 -13 -13 -13 -14 -14 -14 -14 -14 -14 -14 -13 -13 -13 -13 -13 -13 -13 -12 -12 -12 -12 -12 -12 -12 -12 -13 -13 -13 -13 -13 -13
-14 -13 -13 -14 -14 -14 -14 -14 -14 -14 -14 -14 -14 -14 -14 -14 -14 -14 -14 -14 -14 -14 -14 -13 -13 -13 -13 -13 -13 -12 -12 -12 -12 -12 -12 -12 -12 -13 -13 -13 -13 -13 -13
-14 -14 -14 -14 -14 -14 -14 -14 -14 -14 -15 -15 -14 -14 -14 -14 -14 -14 -14 -14 -14 -14 -14 -14 -14 -13 -13 -13 -13 -13 -12 -12 -12 -12 -12 -12 -13 -13 -13 -13 -13 -13 -13
-15 -15 -15 -14 -15 -15 -15 -15 -15 -15 -15 -15 -15 -15 -15 -14 -14 -14 -14 -14 -14 -14 -14 -14 -14 -13 -13 -13 -13 -13 -12 -12 -12 -12 -12 -13 -13 -13 -13 -14 -13 -13 -13
Height
3078 3076 3075 3077 3076 3075 3074 3074 3072 3071 3069 3067 3065 3063 3060 3058 3058 3056 3054 3052 3050 3049 3048 3047 3047 3046 3044 3044 3044 3044 3043 3044 3045 3049 3049 3049 3050 3051 3051 3052 3052 3052 3053
3070 3069 3068 3067 3066 3066 3067 3065 3063 3061 3058 3057 3057 3054 3052 3050 3050 3049 3047 3046 3043 3041 3039 3039 3038 3037 3036 3035 3035 3035 3036 3037 3039 3040 3041 3043 3044 3045 3045 3044 3044 3044 3046
3061 3058 3058 3057 3058 3058 3058 3056 3053 3049 3048 3049 3048 3046 3045 3043 3042 3040 3039 3037 3036 3033 3031 3030 3031 3030 3029 3027 3026 3026 3027 3027 3030 3032 3035 3037 3038 3037 3037 3036 3037 3039 3040
3049 3047 3047 3046 3047 3047 3045 3042 3039 3040 3039 3039 3040 3039 3038 3037 3035 3032 3031 3028 3026 3025 3024 3023 3022 3021 3021 3021 3019 3019 3019 3021 3023 3025 3028 3030 3031 3031 3030 3032 3033 3034 3035
3037 3036 3036 3035 3035 3034 3031 3030 3031 3031 3030 3031 3032 3032 3031 3029 3027 3025 3022 3020 3018 3017 3015 3013 3012 3012 3012 3012 3012 3013 3014 3015 3018 3020 3022 3024 3025 3025 3026 3027 3028 3029 3030
3025 3025 3025 3024 3023 3023 3022 3023 3022 3021 3021 3022 3024 3024 3023 3021 3020 3017 3016 3014 3012 3010 3007 3006 3004 3004 3004 3005 3005 3007 3008 3010 3012 3015 3017 3018 3019 3020 3022 3023 3024 3025 3027
3015 3015 3015 3014 3013 3012 3013 3012 3011 3013 3014 3015 3015 3015 3015 3014 3012 3010 3009 3007 3006 3003 3002 3000 2999 2998 2999 2999 3000 3001 3003 3005 3007 3009 3011 3012 3014 3016 3017 3019 3020 3022 3023
3007 3006 3005 3004 3001 3001 3001 3001 3002 3005 3008 3009 3010 3009 3006 3006 3005 3004 3003 3002 3001 2999 2998 2996 2995 2993 2993 2994 2995 2997 2999 3000 3002 3004 3005 3007 3010 3012 3014 3015 3017 3018 3020
2999 2997 2992 2991 2989 2990 2992 2994 2997 3001 3002 3003 3002 3000 3000 2999 2998 2999 2999 2997 2996 2994 2993 2992 2990 2990 2990 2990 2991 2993 2995 2996 2998 2999 3001 3004 3007 3009 3011 3012 3014 3016 3018
2988 2987 2986 2982 2982 2985 2988 2990 2993 2994 2995 2994 2994 2995 2994 2993 2992 2991 2993 2992 2991 2990 2989 2987 2987 2986 2986 2988 2989 2991 2992 2994 2995 2997 2999 3002 3004 3007 3009 3010 3013 3014 3015
2979 2978 2977 2976 2978 2980 2983 2984 2986 2986 2988 2988 2988 2987 2987 2987 2986 2985 2986 2986 2986 2986 2985 2984 2983 2983 2984 2985 2987 2988 2990 2991 2993 2995 2997 3000 3002 3005 3007 3009 3010 3011 3012
2971 2971 2970 2971 2973 2974 2976 2979 2980 2981 2981 2982 2981 2980 2979 2979 2980 2980 2981 2981 2982 2981 2981 2981 2981 2981 2982 2983 2985 2986 2988 2989 2991 2993 2995 2998 3000 3002 3004 3006 3008 3009 3010
2963 2964 2964 2966 2967 2970 2971 2972 2974 2974 2974 2974 2974 2973 2973 2974 2974 2975 2976 2977 2977 2977 2977 2977 2978 2979 2980 2981 2982 2984 2986 2987 2989 2991 2994 2996 2998 3000 3002 3004 3005 3006 3007
2954 2956 2958 2959 2962 2964 2966 2967 2968 2968 2967 2967 2967 2968 2968 2969 2970 2971 2971 2972 2973 2973 2973 2973 2974 2975 2977 2978 2980 2982 2984 2985 2987 2990 2992 2994 2996 2998 3000 3002 3003 3003 3004
2942 2947 2951 2954 2956 2958 2960 2961 2962 2961 2961 2961 2962 2962 2963 2964 2965 2967 2967 2968 2969 2969 2970 2970 2972 2973 2974 2976 2978 2980 2982 2983 2986 2988 2990 2992 2994 2996 2998 2999 3000 3000 3001
2932 2937 2943 2946 2949 2952 2954 2954 2955 2955 2955 2955 2956 2957 2958 2960 2961 2963 2963 2964 2965 2966 2967 2968 2969 2971 2972 2974 2976 2978 2980 2982 2984 2986 2988 2990 2991 2993 2995 2996 2997 2998 2998
2925 2929 2934 2938 2942 2946 2946 2948 2949 2950 2950 2951 2952 2952 2954 2956 2957 2959 2959 2960 2961 2963 2964 2965 2966 2968 2970 2973 2975 2976 2978 2980 2982 2983 2985 2986 2988 2990 2992 2993 2993 2994 2994
2921 2924 2927 2931 2936 2939 2942 2943 2944 2946 2946 2947 2947 2948 2950 2952 2953 2955 2956 2957 2958 2960 2962 2963 2965 2966 2968 2971 2973 2975 2977 2978 2979 2980 2981 2983 2985 2986 2988 2989 2989 2990 2990
2917 2919 2922 2925 2930 2934 2937 2939 2940 2941 2941 2942 2943 2945 2946 2948 2950 2952 2953 2954 2956 2957 2959 2961 2963 2965 2967 2969 2971 2972 2974 2975 2976 2977 2978 2980 2981 2982 2983 2984 2985 2986 2986
2912 2915 2918 2921 2926 2929 2932 2934 2936 2937 2938 2939 2940 2941 2943 2945 2947 2949 2950 2951 2953 2954 2956 2958 2960 2962 2964 2966 2969 2969 2971 2972 2973 2974 2975 2976 2977 2978 2979 2980 2981 2982 2982
2908 2911 2913 2916 2921 2924 2928 2930 2932 2933 2934 2935 2936 2937 2939 2941 2943 2945 2946 2948 2950 2951 2953 2955 2957 2958 2960 2962 2965 2966 2968 2969 2970 2971 2972 2973 2974 2974 2975 2976 2977 2978 2978
2905 2908 2909 2912 2916 2921 2924 2926 2928 2929 2930 2931 2932 2933 2934 2936 2938 2940 2942 2944 2945 2947 2949 2951 2952 2954 2956 2958 2960 2963 2964 2966 2967 2968 2969 2969 2970 2971 2971 2972 2974 2974 2974
2903 2905 2907 2909 2913 2917 2920 2922 2924 2925 2925 2926 2927 2928 2930 2931 2933 2935 2936 2938 2940 2942 2944 2946 2947 2949 2951 2953 2956 2958 2960 2961 2963 2964 2965 2966 2966 2967 2968 2969 2970 2971 2971
2901 2903 2904 2907 2909 2913 2916 2918 2920 2921 2921 2922 2922 2924 2925 2927 2928 2929 2931 2932 2934 2936 2938 2940 2942 2944 2946 2948 2951 2953 2955 2957 2958 2959 2961 2961 2962 2963 2964 2965 2966 2967 2967
2898 2900 2901 2903 2905 2908 2912 2914 2916 2916 2917 2918 2919 2920 2922 2923 2923 2924 2925 2926 2928 2929 2931 2934 2936 2938 2940 2943 2945 2948 2950 2951 2953 2954 2956 2957 2958 2959 2960 2961 2962 2963 2963
2894 2895 2897 2899 2901 2904 2906 2909 2911 2912 2912 2913 2915 2916 2918 2919 2919 2920 2920 2921 2922 2923 2925 2926 2929 2931 2934 2937 2939 2941 2943 2946 2947 2949 2950 2952 2953 2955 2956 2957 2958 2959 2959
Wind_Speed
31 31 32 37 39 40 39 36 33 32 31 29 31 32 32 29 29 29 28 29 30 32 33 32 33 34 33 33 34 35 36 37 30 27 25 24 23 22 25 30 32 28 25
33 38 41 41 42 40 37 36 34 32 28 29 32 31 30 30 29 30 31 32 32 32 32 33 31 31 31 32 32 31 35 39 38 34 30 24 23 27 34 34 25 25 22
39 41 43 42 43 41 39 40 38 37 37 26 31 31 30 29 30 31 30 30 30 31 31 32 31 31 32 31 32 30 32 36 39 45 31 25 26 28 27 19 19 23 22
43 43 42 44 44 45 41 41 45 42 29 26 28 31 30 30 30 29 29 28 28 28 31 31 30 31 31 31 28 24 23 25 29 27 23 27 27 26 18 22 23 21 21
44 44 43 45 45 45 45 46 45 41 29 23 27 30 30 30 28 29 27 26 26 26 27 28 29 28 28 28 28 25 27 30 29 28 26 26 26 20 20 19 18 16 16
41 42 45 46 48 51 53 51 38 38 23 23 27 29 30 29 29 27 25 24 25 25 24 23 22 23 23 20 19 19 21 25 25 26 26 25 22 18 19 17 15 15 14
35 40 45 47 50 51 43 42 34 21 21 23 25 28 32 29 27 25 23 22 22 19 17 17 18 18 21 21 19 18 18 20 22 23 21 19 15 18 14 14 15 13 13
39 44 45 45 40 46 46 34 19 20 19 22 26 29 27 25 25 24 21 21 18 16 16 16 14 14 17 17 17 18 19 20 22 22 18 13 15 14 13 12 12 12 12
46 45 45 37 27 20 15 16 16 17 21 24 23 24 23 25 24 23 19 16 17 17 16 14 14 15 14 14 15 16 16 16 15 13 10 13 15 14 12 12 11 11 10
35 34 32 22 15 16 19 17 18 20 22 22 23 24 25 26 24 22 20 19 16 15 14 14 13 13 15 14 13 13 12 12 10 9 12 13 14 14 13 12 12 12 11
31 31 30 22 20 19 16 18 19 22 24 24 24 25 26 25 25 21 20 19 16 15 14 14 14 13 16 15 14 13 12 11 10 13 14 14 14 13 13 12 11 10 10
24 25 21 17 22 20 18 22 24 24 24 24 25 24 23 22 23 19 16 16 15 15 15 14 11 14 15 16 16 13 11 11 10 12 13 14 13 12 11 10 10 10 10
26 23 26 23 13 18 22 22 22 23 22 22 21 21 19 23 19 18 18 16 16 16 15 13 12 14 15 18 16 14 12 12 12 12 13 13 12 11 11 11 11 10 10
29 23 19 16 18 20 21 20 20 19 19 20 17 15 16 15 14 14 14 14 15 14 12 13 13 14 16 17 16 14 13 13 13 13 13 12 12 12 12 11 10 10 10
30 24 21 21 20 21 19 17 18 17 16 16 14 13 13 13 13 14 14 13 12 10 11 11 13 15 15 16 16 14 13 13 12 13 13 13 13 13 12 11 11 10 10
35 30 26 25 20 19 16 14 15 14 13 14 13 13 13 14 14 13 12 12 10 9 11 11 15 15 14 15 14 13 13 13 13 14 14 14 14 13 13 13 12 11 11
33 30 29 23 19 16 14 13 12 13 12 12 12 12 13 13 14 13 14 13 11 9 10 10 15 18 15 13 13 12 11 12 13 13 14 14 14 14 14 13 13 13 12
29 29 27 22 17 15 13 12 11 12 11 12 11 12 12 12 13 14 16 15 12 11 11 10 13 17 20 16 12 11 10 10 10 11 12 14 15 15 15 14 14 13 12
30 31 25 22 18 15 12 11 10 10 11 11 12 13 12 13 12 13 14 14 13 11 11 10 11 12 12 14 16 14 8 7 7 9 11 13 14 15 15 14 14 13 12
28 27 26 24 19 14 11 9 9 8 10 12 12 13 14 15 14 13 13 13 14 14 12 12 13 14 13 12 12 11 8 7 7 7 8 10 12 13 13 14 13 12 11
26 28 28 24 18 14 11 9 8 9 10 12 12 14 15 17 16 15 16 16 15 14 15 15 14 14 14 14 13 13 10 9 8 8 8 9 10 11 11 12 13 12 11
26 28 27 22 18 14 11 9 9 10 10 11 12 13 14 16 18 18 18 17 18 19 19 19 18 17 16 15 14 15 14 12 11 10 10 10 10 10 11 12 13 12 11
22 26 26 22 18 15 12 11 10 10 10 12 14 14 14 16 17 18 20 21 21 20 19 19 19 20 19 18 17 17 16 15 14 13 12 11 11 11 11 12 12 12 11
20 25 24 21 18 16 14 13 12 9 9 11 12 12 13 15 17 18 19 20 22 22 22 21 21 21 21 20 20 19 18 17 16 15 14 14 13 12 12 12 12 12 12
18 16 19 22 21 18 17 15 13 10 10 11 12 12 12 13 14 15 17 19 20 22 24 25 24 22 22 21 21 21 20 19 18 17 16 16 15 14 14 14 13 13 13
22 22 22 24 24 22 20 18 15 13 12 13 15 14 13 14 13 13 14 16 18 21 23 25 26 27 27 26 25 24 23 21 19 18 18 18 17 16 16 16 15 14 14
Wind_Direction
267 263 265 266 262 255 253 257 265 272 279 288 297 302 300 293 288 286 285 284 283 279 275 271 270 272 271 267 258 247 249 244 238 239 240 237 240 255 270 274 280 271 258
269 270 268 263 253 249 253 258 263 268 272 284 298 298 291 286 285 286 287 285 282 278 274 272 272 270 271 269 269 266 261 256 252 243 242 241 255 269 275 275 269 265 260
270 265 263 261 256 253 254 259 259 258 269 291 296 292 285 284 286 287 283 282 283 281 279 274 273 269 271 272 268 262 263 262 259 257 241 255 269 280 271 273 283 277 270
265 262 259 257 252 251 250 249 255 263 271 281 290 287 285 285 287 285 284 284 283 285 281 275 270 269 265 267 263 260 266 261 250 232 243 256 272 270 267 271 268 264 259
261 256 254 252 250 248 244 253 264 269 270 280 282 283 284 285 285 284 284 286 287 284 281 276 271 268 264 259 258 251 251 253 257 245 249 261 268 265 268 266 262 259 254
249 252 256 254 253 254 259 267 267 272 274 275 276 280 283 285 284 284 284 288 291 289 287 283 278 264 247 248 247 250 251 250 245 237 244 253 260 263 259 242 248 247 245
264 261 260 255 256 261 262 258 262 267 270 271 279 283 281 279 279 281 283 287 291 289 287 286 276 261 248 249 250 249 244 235 236 237 246 247 253 253 237 237 237 230 226
258 258 257 259 262 255 262 268 280 271 278 284 276 271 275 280 281 275 276 281 289 289 286 284 279 266 251 246 244 242 239 240 243 242 235 237 242 228 228 231 228 222 224
265 267 262 256 261 266 276 271 268 271 270 267 271 277 278 278 274 272 272 273 285 286 285 286 276 262 257 241 232 224 228 230 230 230 226 228 220 217 213 208 207 211 216
285 290 271 251 250 243 242 250 257 265 270 274 275 274 275 272 273 269 259 270 281 286 285 291 284 260 245 225 214 216 229 228 226 218 213 210 205 202 202 201 210 217 229
282 277 254 261 245 240 246 256 261 264 265 267 269 270 270 267 269 269 258 263 270 277 278 286 280 253 231 215 215 223 227 226 219 204 203 203 200 201 205 213 225 232 238
272 272 267 236 226 237 245 255 259 263 265 267 267 268 265 261 261 255 257 256 263 269 271 273 257 240 221 213 216 227 229 224 216 207 207 207 208 212 218 229 236 241 247
251 250 237 240 237 252 254 254 258 262 264 264 268 271 261 249 254 253 249 253 261 262 266 261 241 229 223 219 221 230 230 221 217 215 215 216 217 221 229 236 241 246 253
244 235 223 230 244 249 254 256 260 261 264 265 261 259 253 248 248 250 253 253 257 258 253 255 246 230 215 215 220 231 222 213 216 218 217 216 220 225 232 237 241 245 256
216 225 225 231 242 250 251 254 259 259 260 262 258 254 255 253 249 248 253 250 249 247 252 245 232 209 211 213 220 217 211 211 213 215 215 219 224 228 233 237 241 250 264
212 219 220 231 233 241 247 254 259 259 262 263 260 257 249 245 246 245 242 233 232 244 241 237 223 203 210 210 212 212 214 216 217 218 220 223 225 228 234 238 246 257 269
212 219 219 225 225 236 243 249 252 254 254 257 250 248 245 247 246 238 227 218 223 233 234 239 228 201 200 208 209 210 211 217 221 225 226 226 228 231 236 243 253 262 273
226 230 219 223 213 224 232 238 243 246 248 249 248 248 244 242 241 235 225 221 220 219 220 233 239 225 198 193 201 204 207 215 222 229 233 235 234 235 240 249 257 264 275
232 235 222 210 201 211 221 231 237 243 245 250 248 241 235 235 232 228 226 224 214 211 220 231 230 226 236 228 212 201 212 222 234 238 240 241 241 242 246 251 256 263 271
237 232 223 196 195 201 213 227 243 250 252 250 247 240 235 234 232 230 228 225 219 212 212 214 220 224 221 223 234 224 213 234 243 245 249 250 247 246 247 250 252 258 267
222 222 207 190 189 199 209 226 246 253 251 249 246 240 236 235 232 229 230 227 221 213 214 222 230 232 232 225 234 239 228 237 245 249 252 255 254 250 248 249 252 255 265
224 216 197 187 190 199 213 231 251 257 256 253 249 245 242 239 236 235 235 233 231 230 232 233 234 235 231 228 234 240 234 242 250 253 254 257 258 253 250 250 250 253 261
227 220 203 194 193 200 217 234 249 259 262 259 253 249 246 245 242 240 238 236 237 238 238 236 233 231 232 233 236 237 239 243 252 259 257 254 256 255 254 250 248 251 262
241 233 212 204 201 207 223 235 246 261 265 260 255 251 247 245 245 242 241 242 240 239 239 240 237 234 234 235 234 235 239 247 253 257 256 251 253 254 252 244 244 252 265
234 243 236 222 213 216 225 235 244 261 266 261 252 247 247 248 249 247 243 242 243 244 241 240 241 242 239 237 237 240 245 249 252 254 253 248 247 248 245 242 246 255 267
242 249 249 239 227 223 229 235 244 253 259 258 248 245 248 251 252 254 252 248 245 242 244 244 242 241 240 241 242 244 247 250 251 250 248 244 242 244 242 241 246 256 269